Weather History for Aberdeen / Amory, MS

Change the Weather History Date:

Saturday, April 19, 2014

  Actual Average (KCBM) Record (KCBM)
Temperature  
Mean Temperature 64 °F -  
Max Temperature 82 °F 72 °F 89 °F (2006)
Min Temperature 46 °F 51 °F 39 °F (2001)
Degree Days  
Heating Degree Days 1    
Growing Degree Days 14 (Base 50)    
Moisture  
Dew Point 47 °F    
Average Humidity 55    
Maximum Humidity 59    
Minimum Humidity 52    
Precipitation  
Precipitation 0.00 in - - ()
Sea Level Pressure  
Sea Level Pressure 30.15 in    
Wind  
Wind Speed 3 mph (NNE)    
Max Wind Speed 14 mph    
Max Gust Speed 20 mph    
Visibility 7 miles    
Events      
Averages and records for this station are not official NWS values.
T = Trace of Precipitation, MM = Missing Value Source: NWS Daily Summary

Daily Weather History Graph

Daily Weather History Graph

Search for Another Location

Airport:

Trip Planner

Search our weather history database for the weather conditions in past years. The results will help you decide how hot, cold, wet, or windy it might be!

Date:

Astronomy

Apr. 19, 2014 Rise Set
Actual Time 6:18 AM CDT 7:28 PM CDT
Civil Twilight 5:52 AM CDT 7:54 PM CDT
Nautical Twilight 5:21 AM CDT 8:25 PM CDT
Astronomical Twilight 4:49 AM CDT 8:57 PM CDT
Moon No Moon Rise 9:42 AM CDT (4/19)
Length of Visible Light 14h 01m
Length of Day
13h 10m
Waning Gibbous, 78% of the Moon is Illuminated
Apr 19
Waning Gibbous
Apr 22
Last Quarter
Apr 29
New
May 6
First Quarter
May 14
Full

Hourly Weather History & Observations

Time (CDT) Temp. Heat Index Dew Point Humidity Pressure Visibility Wind Dir Wind Speed Gust Speed Precip Events Conditions
12:15 AM 53.6 °F - 37.4 °F 54% 30.17 in 0.2 mi Calm Calm - N/A   Haze
12:35 AM 53.6 °F - 37.4 °F 54% 30.18 in 1.8 mi Calm Calm - N/A   Haze
12:55 AM 51.8 °F - 35.6 °F 54% 30.18 in 1.2 mi Calm Calm - N/A   Haze
1:15 AM 51.8 °F - 35.6 °F 54% 30.18 in 0.2 mi Calm Calm - N/A   Haze
1:35 AM 51.8 °F - 35.6 °F 54% 30.18 in 0.8 mi North 3.5 mph - N/A   Haze
1:55 AM 51.8 °F - 35.6 °F 54% 30.18 in 1.2 mi Calm Calm - N/A   Haze
2:15 AM 51.8 °F - 35.6 °F 54% 30.17 in 2.5 mi Calm Calm - N/A   Haze
2:35 AM 50.0 °F - 33.8 °F 54% 30.17 in 0.5 mi Calm Calm - N/A   Haze
2:55 AM 50.0 °F - 33.8 °F 54% 30.17 in 0.2 mi Calm Calm - N/A   Haze
3:15 AM 48.2 °F - 33.8 °F 58% 30.17 in 0.2 mi Calm Calm - N/A   Haze
3:35 AM 48.2 °F - 33.8 °F 58% 30.17 in 3.0 mi Calm Calm - N/A   Haze
4:15 AM 48.2 °F - 33.8 °F 58% 30.17 in 0.2 mi Calm Calm - N/A   Haze
4:35 AM 46.4 °F - 32.0 °F 57% 30.16 in 0.2 mi Calm Calm - N/A   Haze
4:55 AM 46.4 °F - 32.0 °F 57% 30.16 in 0.2 mi Calm Calm - N/A   Haze
5:15 AM 46.4 °F - 32.0 °F 57% 30.16 in 0.5 mi Calm Calm - N/A   Haze
5:35 AM 48.2 °F - 32.0 °F 54% 30.16 in 0.2 mi Calm Calm - N/A   Haze
5:55 AM 48.2 °F - 32.0 °F 54% 30.16 in 0.2 mi Calm Calm - N/A   Haze
6:15 AM 48.2 °F - 32.0 °F 54% 30.17 in 0.8 mi Calm Calm - N/A   Haze
6:35 AM 48.2 °F - 33.8 °F 58% 30.17 in 0.8 mi Calm Calm - N/A   Haze
6:55 AM 48.2 °F - 33.8 °F 58% 30.18 in 1.5 mi Calm Calm - N/A   Haze
7:15 AM 48.2 °F - 33.8 °F 58% 30.18 in 0.2 mi Calm Calm - N/A   Haze
7:35 AM 51.8 °F - 35.6 °F 54% 30.19 in 3.0 mi Calm Calm - N/A   Haze
7:55 AM 51.8 °F - 35.6 °F 54% 30.19 in 5.0 mi North 4.6 mph - N/A   Haze
8:15 AM 53.6 °F - 37.4 °F 54% 30.19 in 6.0 mi North 4.6 mph - N/A   Haze
8:35 AM 55.4 °F - 39.2 °F 54% 30.19 in 8.0 mi NNE 6.9 mph - N/A   Clear
8:55 AM 57.2 °F - 42.8 °F 59% 30.19 in 10.0 mi North 9.2 mph - N/A   Clear
9:15 AM 60.8 °F - 44.6 °F 55% 30.19 in 9.0 mi North 8.1 mph - N/A   Clear
9:35 AM 64.4 °F - 46.4 °F 52% 30.19 in 9.0 mi North 12.7 mph - N/A   Clear
9:55 AM 66.2 °F - 50.0 °F 56% 30.19 in 10.0 mi North 11.5 mph - N/A   Clear
10:15 AM 69.8 °F - 53.6 °F 56% 30.19 in 10.0 mi NNE 12.7 mph 17.3 mph N/A   Clear
10:35 AM 71.6 °F - 53.6 °F 53% 30.19 in 10.0 mi NNE 10.4 mph - N/A   Clear
10:55 AM 73.4 °F - 55.4 °F 53% 30.18 in 10.0 mi NNE 11.5 mph - N/A   Clear
11:15 AM 73.4 °F - 57.2 °F 57% 30.18 in 10.0 mi NE 10.4 mph 19.6 mph N/A   Clear
11:35 AM 75.2 °F - 57.2 °F 53% 30.18 in 10.0 mi NNE 11.5 mph 16.1 mph N/A   Clear
11:55 AM 77.0 °F - 60.8 °F 57% 30.17 in 10.0 mi NE 11.5 mph 19.6 mph N/A   Clear
12:15 PM 77.0 °F - 60.8 °F 57% 30.17 in 10.0 mi North 9.2 mph 16.1 mph N/A   Clear
12:35 PM 78.8 °F - 60.8 °F 54% 30.16 in 9.0 mi NE 12.7 mph - N/A   Clear
12:55 PM 80.6 °F 81.8 °F 62.6 °F 54% 30.16 in 10.0 mi North 10.4 mph 18.4 mph N/A   Clear
1:15 PM 80.6 °F 81.8 °F 62.6 °F 54% 30.16 in 10.0 mi North 9.2 mph - N/A   Clear
1:35 PM 80.6 °F 81.8 °F 62.6 °F 54% 30.15 in 10.0 mi NNE 9.2 mph - N/A   Clear
1:55 PM 80.6 °F 81.8 °F 62.6 °F 54% 30.15 in 10.0 mi North 8.1 mph - N/A   Clear
2:15 PM 80.6 °F 82.3 °F 64.4 °F 58% 30.15 in 10.0 mi NE 8.1 mph - N/A   Clear
2:35 PM 82.4 °F 83.9 °F 64.4 °F 54% 30.14 in 10.0 mi NNE 9.2 mph - N/A   Clear
2:55 PM 82.4 °F 83.9 °F 64.4 °F 54% 30.13 in 10.0 mi NNW 13.8 mph - N/A   Clear
3:15 PM 82.4 °F 83.9 °F 64.4 °F 54% 30.12 in 10.0 mi NNE 10.4 mph - N/A   Clear
3:35 PM 82.4 °F 83.9 °F 64.4 °F 54% 30.11 in 10.0 mi NNE 9.2 mph - N/A   Clear
3:55 PM 82.4 °F 83.9 °F 64.4 °F 54% 30.10 in 10.0 mi North 5.8 mph - N/A   Clear
4:15 PM 82.4 °F 83.9 °F 64.4 °F 54% 30.10 in 10.0 mi NNE 9.2 mph - N/A   Clear
4:35 PM 82.4 °F 83.9 °F 64.4 °F 54% 30.10 in 10.0 mi North 8.1 mph - N/A   Clear
4:55 PM 82.4 °F 83.9 °F 64.4 °F 54% 30.10 in 10.0 mi North 6.9 mph - N/A   Clear
5:15 PM 82.4 °F 83.9 °F 64.4 °F 54% 30.10 in 10.0 mi North 8.1 mph - N/A   Clear
5:35 PM 80.6 °F 82.3 °F 64.4 °F 58% 30.10 in 10.0 mi North 11.5 mph - N/A   Clear
5:55 PM 80.6 °F 81.8 °F 62.6 °F 54% 30.10 in 10.0 mi North 8.1 mph - N/A   Clear
6:15 PM 80.6 °F 81.8 °F 62.6 °F 54% 30.10 in 10.0 mi NNE 8.1 mph - N/A   Clear
6:35 PM 78.8 °F - 60.8 °F 54% 30.10 in 10.0 mi NNE 5.8 mph - N/A   Clear
6:55 PM 77.0 °F - 60.8 °F 57% 30.10 in 10.0 mi NE 4.6 mph - N/A   Clear
7:15 PM 75.2 °F - 57.2 °F 53% 30.11 in 10.0 mi NE 3.5 mph - N/A   Clear
7:35 PM 73.4 °F - 55.4 °F 53% 30.11 in 10.0 mi Calm Calm - N/A   Clear
7:55 PM 68.0 °F - 51.8 °F 56% 30.12 in 10.0 mi Calm Calm - N/A   Clear
8:15 PM 64.4 °F - 48.2 °F 56% 30.12 in 10.0 mi Calm Calm - N/A   Clear
8:35 PM 62.6 °F - 46.4 °F 55% 30.13 in 10.0 mi Calm Calm - N/A   Clear
8:55 PM 60.8 °F - 44.6 °F 55% 30.14 in 10.0 mi Calm Calm - N/A   Clear
9:15 PM 57.2 °F - 42.8 °F 59% 30.14 in 10.0 mi Calm Calm - N/A   Clear
9:35 PM 57.2 °F - 41.0 °F 55% 30.14 in 10.0 mi Calm Calm - N/A   Clear
9:55 PM 57.2 °F - 41.0 °F 55% 30.15 in 10.0 mi Calm Calm - N/A   Clear
10:15 PM 55.4 °F - 39.2 °F 54% 30.15 in 10.0 mi Calm Calm - N/A   Clear
10:35 PM 55.4 °F - 39.2 °F 54% 30.15 in 10.0 mi Calm Calm - N/A   Clear
10:55 PM 55.4 °F - 39.2 °F 54% 30.16 in 10.0 mi Calm Calm - N/A   Clear
11:15 PM 53.6 °F - 37.4 °F 54% 30.16 in 9.0 mi Calm Calm - N/A   Clear
11:35 PM 53.6 °F - 37.4 °F 54% 30.16 in 9.0 mi Calm Calm - N/A   Clear
11:55 PM 53.6 °F - 37.4 °F 54% 30.16 in 7.0 mi Calm Calm - N/A   Clear